Weather in Navlya

Russia / Oryol Oblast     52°55′55″N   35°09′37″E
temp.,
°C
wind,
m/s
gust,
m/s
humid.,
%
clouds,
%
prec.,
mm/h
press.,
hPa
HPBL,
m
28 november, sun
sun2800:00+5ssw6149573 0.1 1001466
03:00+6sw61083100 0.1 1002636
06:00+2sw379611 0.0 1004191
09:00+1sw39945 0.0 1006215
12:00+3sw477882 0.0 1007297
15:00+4ssw247876 0.0 1008163
18:00+2sse3484100 0.0 100861
21:00+3se41196100 0.0 1007230
29 november, mon
mon2900:00+3se51396100 0.0 1006296
03:00+3se51296100 0.0 1005271
06:00+3se499799 0.0 1003191
09:00+4ese4998100 0.1 1001187
12:00+5ese4999100 0.4 998248
15:00+5ese4699100 1.9 995181
18:00+6se41099100 0.0 992301
21:00+6e4899100 2.0 986174
30 november, tue
tue3000:00+6ene4898100 5.1 979292
03:00+5wnw4699100 9.3 976218
06:00+5w5998100 1.2 976398
09:000wsw132096100 4.0 982966
12:00+1wsw121992100 3.5 9861105
15:00+1sw101788100 3.6 9871215
18:000sw9158599 0.1 9881091
21:00−2wsw9149393 0.3 989983
1 december, wed
wed100:00−2wsw91488100 0.3 9901020
03:00−3w91494100 1.1 992992
06:00−2w81383100 0.5 9941057
09:00−3w81287100 0.6 995979
12:00−3w7118498 0.1 9971003
15:00−2w6108091 0.1 998917
18:00−4w410915 0.0 999333
21:00−5w410945 0.0 1001326
2 december, thu
thu200:00−6sw369621 0.0 1002141
03:00−5ssw41093100 0.0 1002276
06:00−2s61494100 0.1 999495
09:000ssw81598100 1.4 997759
12:00+1sw81698100 0.8 998661
15:00+2sw71597100 0.8 999626
18:00+3sw81387100 0.0 1001686
21:00+2sw7169268 0.0 1002481